QPF
0.00 0.00 0.01 0.00 0.01 0.01 0.02 0.02 0.01 0.01 0.01 0.02 0.03 0.02 0.01 0.01 0.01 0.01 0.01 0.02 0.02 0.02 0.02 0.03 0.03 0.04 0.04 0.05 0.07 0.08 0.08 0.08 0.06 0.05 0.04 0.05 0.06 0.07 0.06 0.05 0.05 0.04 0.04
0.00 0.00 0.00 0.00 0.00 0.01 0.02 0.02 0.01 0.01 0.01 0.01 0.02 0.02 0.02 0.02 0.01 0.01 0.01 0.02 0.04 0.04 0.04 0.04 0.04 0.03 0.03 0.04 0.04 0.04 0.06 0.07 0.07 0.07 0.07 0.07 0.07 0.06 0.05 0.05 0.04 0.03 0.02
0.00 0.00 0.00 0.00 0.01 0.01 0.01 0.01 0.00 0.01 0.01 0.01 0.01 0.02 0.02 0.01 0.01 0.01 0.01 0.02 0.04 0.04 0.03 0.03 0.03 0.03 0.03 0.04 0.04 0.04 0.05 0.07 0.07 0.07 0.07 0.06 0.05 0.05 0.04 0.04 0.03 0.02 0.02
0.01 0.00 0.00 0.00 0.01 0.01 0.00 0.00 0.00 0.01 0.01 0.01 0.02 0.02 0.01 0.01 0.01 0.02 0.01 0.02 0.02 0.02 0.02 0.02 0.02 0.02 0.03 0.03 0.03 0.03 0.05 0.06 0.05 0.04 0.03 0.03 0.04 0.04 0.03 0.02 0.02 0.01 0.02
0.01 0.00 0.01 0.01 0.01 0.01 0.01 0.01 0.01 0.01 0.01 0.01 0.02 0.02 0.01 0.01 0.01 0.02 0.02 0.02 0.02 0.01 0.01 0.01 0.01 0.01 0.02 0.03 0.03 0.02 0.03 0.03 0.02 0.02 0.03 0.04 0.05 0.04 0.03 0.01 0.01 0.01 0.02
0.01 0.01 0.01 0.01 0.00 0.00 0.01 0.01 0.01 0.01 0.01 0.01 0.02 0.01 0.01 0.01 0.01 0.01 0.02 0.02 0.02 0.01 0.01 0.01 0.01 0.01 0.01 0.02 0.03 0.03 0.03 0.03 0.02 0.02 0.03 0.04 0.04 0.03 0.02 0.01 0.01 0.01 0.02
0.01 0.01 0.01 0.01 0.00 0.00 0.01 0.01 0.01 0.01 0.01 0.01 0.01 0.01 0.01 0.01 0.01 0.01 0.01 0.01 0.01 0.01 0.01 0.00 0.01 0.01 0.01 0.01 0.01 0.02 0.02 0.03 0.03 0.02 0.02 0.02 0.02 0.02 0.01 0.01 0.01 0.02 0.03
0.01 0.01 0.01 0.01 0.00 0.01 0.01 0.01 0.01 0.02 0.02 0.01 0.01 0.02 0.02 0.01 0.01 0.01 0.01 0.01 0.01 0.01 0.01 0.01 0.01 0.01 0.01 0.01 0.01 0.01 0.01 0.01 0.02 0.01 0.01 0.01 0.01 0.01 0.01 0.01 0.01 0.02 0.03
0.01 0.01 0.01 0.01 0.01 0.01 0.01 0.01 0.01 0.02 0.02 0.01 0.02 0.02 0.02 0.02 0.01 0.00 0.01 0.01 0.01 0.01 0.01 0.01 0.01 0.01 0.01 0.02 0.01 0.01 0.00 0.00 0.00 0.00 0.00 0.01 0.01 0.01 0.01 0.01 0.01 0.03 0.04
0.01 0.01 0.01 0.01 0.01 0.02 0.03 0.04 0.03 0.02 0.02 0.01 0.01 0.02 0.02 0.02 0.01 0.01 0.01 0.01 0.01 0.01 0.02 0.02 0.02 0.02 0.02 0.01 0.01 0.01 0.00 0.00 0.00 0.00 0.01 0.01 0.00 0.01 0.01 0.01 0.02 0.03 0.03
0.01 0.01 0.01 0.01 0.02 0.03 0.04 0.05 0.03 0.03 0.02 0.01 0.01 0.01 0.01 0.01 0.01 0.01 0.01 0.01 0.01 0.02 0.02 0.01 0.01 0.02 0.01 0.01 0.01 0.01 0.01 0.01 0.01 0.01 0.01 0.02 0.01 0.01 0.01 0.01 0.01 0.01 0.01
0.01 0.00 0.01 0.01 0.01 0.02 0.03 0.04 0.03 0.03 0.02 0.02 0.02 0.02 0.02 0.01 0.01 0.01 0.02 0.03 0.04 0.04 0.02 0.02 0.02 0.02 0.02 0.01 0.01 0.02 0.02 0.02 0.02 0.02 0.02 0.01 0.02 0.02 0.01 0.01 0.02 0.04 0.04
0.01 0.01 0.01 0.01 0.01 0.01 0.02 0.03 0.03 0.04 0.03 0.03 0.03 0.03 0.03 0.02 0.03 0.04 0.05 0.05 0.05 0.04 0.03 0.03 0.04 0.04 0.03 0.03 0.02 0.03 0.02 0.02 0.01 0.01 0.01 0.01 0.01 0.01 0.01 0.01 0.03 0.05 0.07
0.01 0.01 0.01 0.01 0.01 0.01 0.02 0.03 0.03 0.03 0.03 0.03 0.03 0.04 0.03 0.03 0.03 0.04 0.04 0.04 0.04 0.04 0.03 0.04 0.06 0.06 0.06 0.06 0.05 0.04 0.03 0.02 0.01 0.01 0.01 0.01 0.01 0.01 0.02 0.02 0.02 0.03 0.03
0.01 0.01 0.01 0.01 0.01 0.02 0.02 0.03 0.02 0.02 0.02 0.02 0.03 0.03 0.03 0.04 0.04 0.04 0.05 0.05 0.06 0.05 0.06 0.07 0.08 0.09 0.10 0.07 0.06 0.05 0.04 0.02 0.01 0.01 0.01 0.01 0.01 0.01 0.02 0.01 0.01 0.01 0.01
0.00 0.00 0.01 0.01 0.02 0.02 0.02 0.02 0.02 0.03 0.03 0.03 0.03 0.05 0.06 0.06 0.05 0.04 0.04 0.04 0.05 0.04 0.04 0.04 0.05 0.06 0.06 0.04 0.02 0.02 0.01 0.01 0.01 0.01 0.01 0.00 0.01 0.01 0.01 0.01 0.01 0.00 0.00
0.00 0.01 0.02 0.01 0.01 0.02 0.02 0.02 0.02 0.02 0.03 0.02 0.03 0.06 0.08 0.09 0.10 0.10 0.07 0.05 0.03 0.03 0.02 0.02 0.02 0.02 0.02 0.02 0.02 0.01 0.01 0.01 0.01 0.01 0.01 0.01 0.01 0.01 0.01 0.01 0.01 0.01 0.01
0.00 0.01 0.02 0.01 0.02 0.02 0.02 0.02 0.02 0.03 0.02 0.02 0.03 0.04 0.04 0.05 0.06 0.07 0.07 0.05 0.03 0.03 0.03 0.03 0.02 0.02 0.02 0.02 0.02 0.02 0.03 0.03 0.03 0.02 0.02 0.02 0.02 0.02 0.01 0.01 0.01 0.01 0.01
0.01 0.01 0.01 0.01 0.02 0.02 0.03 0.03 0.04 0.04 0.04 0.03 0.04 0.04 0.04 0.04 0.05 0.05 0.04 0.03 0.02 0.02 0.02 0.02 0.02 0.02 0.02 0.02 0.02 0.02 0.02 0.02 0.03 0.03 0.02 0.03 0.03 0.03 0.02 0.02 0.01 0.02 0.02
0.01 0.02 0.02 0.02 0.02 0.03 0.04 0.05 0.06 0.05 0.06 0.06 0.06 0.05 0.06 0.05 0.04 0.04 0.04 0.03 0.03 0.03 0.02 0.02 0.02 0.03 0.03 0.03 0.03 0.03 0.02 0.02 0.02 0.03 0.03 0.02 0.02 0.01 0.01 0.01 0.01 0.01 0.01
0.02 0.03 0.03 0.04 0.06 0.07 0.08 0.10 0.09 0.09 0.10 0.09 0.07 0.07 0.06 0.04 0.03 0.03 0.03 0.04 0.04 0.04 0.03 0.04 0.04 0.06 0.07 0.08 0.07 0.05 0.04 0.03 0.03 0.03 0.03 0.02 0.02 0.02 0.02 0.01 0.01 0.01 0.01
0.04 0.05 0.06 0.07 0.09 0.10 0.12 0.14 0.12 0.10 0.08 0.07 0.06 0.07 0.08 0.06 0.06 0.06 0.05 0.06 0.07 0.07 0.06 0.07 0.08 0.09 0.08 0.08 0.07 0.05 0.04 0.04 0.03 0.03 0.03 0.03 0.03 0.03 0.03 0.02 0.02 0.01 0.01
0.05 0.04 0.04 0.06 0.06 0.06 0.07 0.07 0.08 0.08 0.07 0.07 0.07 0.07 0.08 0.07 0.07 0.08 0.08 0.08 0.08 0.08 0.08 0.07 0.08 0.08 0.08 0.07 0.06 0.05 0.04 0.04 0.04 0.04 0.04 0.04 0.04 0.04 0.03 0.02 0.02 0.02 0.02
0.04 0.03 0.03 0.03 0.04 0.04 0.05 0.06 0.06 0.07 0.08 0.07 0.07 0.07 0.08 0.08 0.08 0.08 0.08 0.08 0.07 0.07 0.06 0.06 0.05 0.04 0.04 0.04 0.04 0.05 0.05 0.05 0.05 0.05 0.05 0.04 0.04 0.03 0.03 0.03 0.03 0.03 0.03
0.05 0.03 0.03 0.03 0.03 0.03 0.05 0.06 0.06 0.08 0.08 0.06 0.06 0.07 0.08 0.08 0.07 0.05 0.05 0.05 0.04 0.04 0.04 0.03 0.03 0.03 0.03 0.04 0.04 0.04 0.05 0.04 0.03 0.03 0.02 0.02 0.02 0.02 0.02 0.02 0.02 0.02 0.03
0.04 0.04 0.03 0.03 0.04 0.05 0.06 0.08 0.09 0.09 0.09 0.08 0.09 0.08 0.06 0.05 0.04 0.04 0.05 0.05 0.05 0.04 0.03 0.02 0.02 0.03 0.04 0.04 0.04 0.03 0.02 0.02 0.02 0.02 0.02 0.02 0.02 0.02 0.02 0.02 0.02 0.02 0.03
MSLP
1020.56 1020.87 1021.18 1021.45 1021.63 1021.70 1021.67 1021.54 1021.37 1021.19 1021.04 1020.94 1020.89 1020.88 1020.90 1020.92 1020.91 1020.87 1020.80 1020.70 1020.59 1020.49 1020.40 1020.35 1020.35 1020.40 1020.52 1020.72 1020.99 1021.34 1021.78 1022.28 1022.82 1023.38 1023.91 1024.36 1024.71 1024.94 1025.02 1024.99 1024.86 1024.68 1024.49
1020.35 1020.69 1021.02 1021.31 1021.51 1021.60 1021.57 1021.46 1021.30 1021.12 1020.97 1020.85 1020.79 1020.77 1020.79 1020.82 1020.84 1020.86 1020.85 1020.82 1020.79 1020.75 1020.72 1020.71 1020.72 1020.76 1020.85 1021.00 1021.21 1021.49 1021.86 1022.30 1022.81 1023.34 1023.87 1024.36 1024.75 1025.04 1025.20 1025.24 1025.19 1025.07 1024.94
1020.00 1020.36 1020.71 1021.02 1021.23 1021.35 1021.35 1021.27 1021.14 1020.99 1020.85 1020.74 1020.68 1020.67 1020.69 1020.74 1020.80 1020.85 1020.90 1020.94 1020.98 1021.02 1021.05 1021.09 1021.14 1021.20 1021.28 1021.39 1021.55 1021.78 1022.08 1022.46 1022.90 1023.38 1023.87 1024.34 1024.74 1025.06 1025.26 1025.36 1025.37 1025.32 1025.25
1019.51 1019.88 1020.24 1020.56 1020.80 1020.93 1020.98 1020.95 1020.87 1020.77 1020.68 1020.62 1020.59 1020.61 1020.65 1020.72 1020.80 1020.88 1020.97 1021.07 1021.17 1021.27 1021.37 1021.47 1021.57 1021.66 1021.75 1021.85 1021.98 1022.16 1022.39 1022.69 1023.06 1023.46 1023.89 1024.31 1024.69 1025.00 1025.22 1025.36 1025.43 1025.44 1025.43
1018.92 1019.29 1019.64 1019.96 1020.20 1020.37 1020.46 1020.49 1020.49 1020.47 1020.46 1020.47 1020.50 1020.56 1020.64 1020.73 1020.83 1020.94 1021.06 1021.19 1021.34 1021.49 1021.65 1021.80 1021.95 1022.08 1022.19 1022.30 1022.42 1022.55 1022.73 1022.95 1023.22 1023.54 1023.88 1024.23 1024.56 1024.84 1025.07 1025.23 1025.34 1025.41 1025.46
1018.30 1018.64 1018.96 1019.25 1019.49 1019.67 1019.80 1019.89 1019.97 1020.05 1020.14 1020.24 1020.35 1020.47 1020.60 1020.72 1020.84 1020.97 1021.11 1021.26 1021.43 1021.62 1021.82 1022.02 1022.21 1022.39 1022.54 1022.66 1022.77 1022.87 1022.99 1023.14 1023.33 1023.55 1023.80 1024.07 1024.33 1024.58 1024.79 1024.97 1025.11 1025.23 1025.35
1017.70 1017.99 1018.26 1018.50 1018.70 1018.88 1019.03 1019.18 1019.33 1019.50 1019.69 1019.88 1020.08 1020.28 1020.45 1020.61 1020.75 1020.89 1021.03 1021.19 1021.38 1021.59 1021.82 1022.07 1022.30 1022.52 1022.71 1022.86 1022.97 1023.06 1023.14 1023.23 1023.33 1023.47 1023.63 1023.82 1024.01 1024.21 1024.41 1024.59 1024.77 1024.93 1025.10
1017.20 1017.42 1017.61 1017.77 1017.91 1018.05 1018.20 1018.37 1018.57 1018.81 1019.08 1019.36 1019.64 1019.90 1020.12 1020.31 1020.47 1020.62 1020.77 1020.93 1021.13 1021.36 1021.62 1021.90 1022.18 1022.44 1022.67 1022.85 1022.98 1023.07 1023.13 1023.18 1023.23 1023.29 1023.38 1023.50 1023.64 1023.80 1023.98 1024.16 1024.36 1024.56 1024.77
1016.82 1016.95 1017.04 1017.11 1017.17 1017.24 1017.36 1017.52 1017.74 1018.02 1018.33 1018.67 1019.00 1019.31 1019.57 1019.79 1019.98 1020.14 1020.29 1020.46 1020.67 1020.93 1021.21 1021.53 1021.86 1022.17 1022.44 1022.67 1022.83 1022.94 1023.00 1023.04 1023.06 1023.08 1023.12 1023.19 1023.30 1023.43 1023.59 1023.78 1023.99 1024.21 1024.45
1016.55 1016.60 1016.59 1016.55 1016.52 1016.51 1016.56 1016.69 1016.89 1017.16 1017.49 1017.85 1018.20 1018.54 1018.83 1019.08 1019.28 1019.46 1019.64 1019.83 1020.06 1020.34 1020.66 1021.02 1021.39 1021.75 1022.08 1022.35 1022.56 1022.70 1022.79 1022.84 1022.86 1022.88 1022.91 1022.97 1023.06 1023.18 1023.33 1023.52 1023.74 1023.98 1024.23
1016.37 1016.34 1016.24 1016.11 1015.98 1015.89 1015.87 1015.93 1016.08 1016.31 1016.62 1016.96 1017.32 1017.66 1017.97 1018.23 1018.46 1018.67 1018.88 1019.11 1019.37 1019.69 1020.05 1020.44 1020.85 1021.26 1021.63 1021.96 1022.22 1022.41 1022.55 1022.64 1022.70 1022.74 1022.79 1022.87 1022.96 1023.09 1023.26 1023.45 1023.67 1023.91 1024.17
1016.22 1016.13 1015.97 1015.77 1015.56 1015.39 1015.29 1015.28 1015.36 1015.54 1015.79 1016.10 1016.43 1016.76 1017.07 1017.36 1017.61 1017.86 1018.11 1018.38 1018.68 1019.04 1019.44 1019.87 1020.31 1020.76 1021.17 1021.54 1021.85 1022.10 1022.29 1022.44 1022.56 1022.66 1022.76 1022.87 1023.01 1023.17 1023.35 1023.55 1023.78 1024.02 1024.26
1016.04 1015.92 1015.72 1015.48 1015.23 1015.01 1014.84 1014.76 1014.77 1014.88 1015.07 1015.32 1015.61 1015.92 1016.23 1016.52 1016.81 1017.10 1017.39 1017.71 1018.06 1018.45 1018.88 1019.34 1019.81 1020.27 1020.70 1021.10 1021.45 1021.75 1022.00 1022.21 1022.40 1022.57 1022.75 1022.92 1023.11 1023.32 1023.53 1023.75 1023.98 1024.21 1024.44
1015.77 1015.65 1015.45 1015.21 1014.94 1014.69 1014.48 1014.35 1014.30 1014.34 1014.46 1014.65 1014.90 1015.17 1015.47 1015.78 1016.09 1016.42 1016.76 1017.12 1017.51 1017.93 1018.38 1018.84 1019.31 1019.77 1020.21 1020.62 1020.98 1021.32 1021.62 1021.89 1022.15 1022.40 1022.66 1022.91 1023.16 1023.42 1023.68 1023.93 1024.17 1024.40 1024.61
1015.37 1015.27 1015.11 1014.89 1014.64 1014.39 1014.17 1014.00 1013.90 1013.88 1013.94 1014.07 1014.27 1014.51 1014.79 1015.10 1015.44 1015.80 1016.17 1016.57 1017.00 1017.43 1017.88 1018.34 1018.78 1019.22 1019.64 1020.03 1020.40 1020.74 1021.08 1021.40 1021.73 1022.05 1022.38 1022.71 1023.04 1023.36 1023.66 1023.94 1024.20 1024.44 1024.65
1014.83 1014.77 1014.65 1014.47 1014.26 1014.04 1013.83 1013.65 1013.51 1013.44 1013.45 1013.52 1013.66 1013.87 1014.13 1014.44 1014.79 1015.16 1015.57 1015.99 1016.42 1016.86 1017.30 1017.73 1018.14 1018.53 1018.91 1019.27 1019.63 1019.97 1020.32 1020.68 1021.06 1021.45 1021.84 1022.24 1022.64 1023.02 1023.38 1023.70 1024.00 1024.25 1024.48
1014.14 1014.12 1014.06 1013.94 1013.78 1013.59 1013.40 1013.21 1013.06 1012.95 1012.90 1012.92 1013.02 1013.19 1013.42 1013.71 1014.06 1014.44 1014.86 1015.28 1015.72 1016.14 1016.56 1016.95 1017.32 1017.67 1018.00 1018.33 1018.65 1018.99 1019.35 1019.74 1020.15 1020.58 1021.04 1021.50 1021.96 1022.40 1022.81 1023.19 1023.52 1023.82 1024.07
1013.34 1013.35 1013.33 1013.27 1013.16 1013.01 1012.84 1012.66 1012.49 1012.35 1012.26 1012.23 1012.28 1012.40 1012.60 1012.87 1013.20 1013.57 1013.98 1014.40 1014.82 1015.23 1015.61 1015.97 1016.30 1016.60 1016.90 1017.19 1017.50 1017.83 1018.19 1018.60 1019.04 1019.52 1020.02 1020.53 1021.04 1021.54 1022.00 1022.43 1022.82 1023.17 1023.48
1012.44 1012.48 1012.50 1012.47 1012.41 1012.29 1012.14 1011.97 1011.79 1011.63 1011.50 1011.43 1011.43 1011.51 1011.67 1011.90 1012.21 1012.56 1012.94 1013.34 1013.74 1014.12 1014.47 1014.80 1015.10 1015.37 1015.64 1015.92 1016.22 1016.55 1016.93 1017.35 1017.83 1018.34 1018.88 1019.43 1019.99 1020.53 1021.05 1021.54 1021.99 1022.39 1022.77
1011.49 1011.54 1011.58 1011.59 1011.55 1011.46 1011.33 1011.17 1010.98 1010.80 1010.65 1010.54 1010.50 1010.54 1010.66 1010.85 1011.12 1011.43 1011.79 1012.15 1012.52 1012.87 1013.20 1013.50 1013.77 1014.03 1014.30 1014.58 1014.88 1015.23 1015.63 1016.09 1016.59 1017.13 1017.71 1018.30 1018.89 1019.48 1020.04 1020.58 1021.09 1021.57 1022.01
1010.52 1010.58 1010.63 1010.65 1010.63 1010.56 1010.44 1010.29 1010.10 1009.91 1009.74 1009.61 1009.54 1009.54 1009.62 1009.78 1010.00 1010.28 1010.59 1010.92 1011.24 1011.56 1011.86 1012.13 1012.40 1012.66 1012.93 1013.22 1013.55 1013.93 1014.36 1014.85 1015.39 1015.96 1016.57 1017.19 1017.82 1018.44 1019.05 1019.64 1020.21 1020.75 1021.26
1009.56 1009.61 1009.66 1009.68 1009.67 1009.61 1009.50 1009.35 1009.18 1008.99 1008.82 1008.68 1008.59 1008.57 1008.62 1008.74 1008.93 1009.16 1009.42 1009.70 1009.98 1010.26 1010.52 1010.78 1011.03 1011.29 1011.57 1011.89 1012.25 1012.67 1013.14 1013.67 1014.24 1014.85 1015.49 1016.14 1016.79 1017.45 1018.09 1018.72 1019.33 1019.93 1020.51
1008.63 1008.66 1008.69 1008.70 1008.68 1008.62 1008.52 1008.38 1008.21 1008.03 1007.87 1007.74 1007.66 1007.63 1007.67 1007.77 1007.92 1008.11 1008.32 1008.55 1008.78 1009.01 1009.23 1009.45 1009.69 1009.94 1010.23 1010.57 1010.97 1011.42 1011.94 1012.50 1013.12 1013.76 1014.43 1015.11 1015.79 1016.46 1017.13 1017.79 1018.44 1019.08 1019.70
1007.71 1007.70 1007.70 1007.68 1007.64 1007.56 1007.45 1007.31 1007.15 1007.00 1006.86 1006.75 1006.68 1006.67 1006.71 1006.80 1006.93 1007.09 1007.26 1007.43 1007.61 1007.78 1007.96 1008.15 1008.35 1008.60 1008.89 1009.25 1009.67 1010.16 1010.71 1011.32 1011.97 1012.65 1013.34 1014.05 1014.75 1015.44 1016.12 1016.80 1017.47 1018.14 1018.79
1006.77 1006.70 1006.63 1006.56 1006.47 1006.36 1006.22 1006.08 1005.93 1005.79 1005.68 1005.60 1005.57 1005.59 1005.65 1005.74 1005.87 1006.00 1006.14 1006.28 1006.41 1006.53 1006.66 1006.81 1006.99 1007.22 1007.51 1007.88 1008.32 1008.84 1009.43 1010.08 1010.77 1011.48 1012.20 1012.93 1013.65 1014.35 1015.05 1015.74 1016.42 1017.09 1017.76
1005.74 1005.59 1005.44 1005.28 1005.12 1004.95 1004.77 1004.60 1004.45 1004.32 1004.23 1004.19 1004.20 1004.26 1004.36 1004.48 1004.61 1004.75 1004.88 1005.00 1005.10 1005.19 1005.29 1005.41 1005.57 1005.79 1006.08 1006.46 1006.93 1007.48 1008.11 1008.79 1009.52 1010.27 1011.02 1011.77 1012.51 1013.22 1013.92 1014.60 1015.28 1015.95 1016.61
Thickness
5784 5780 5775 5771 5767 5763 5759 5756 5754 5751 5748 5745 5742 5739 5737 5734 5732 5729 5727 5724 5721 5719 5718 5716 5714 5712 5709 5706 5703 5700 5697 5694 5687 5682 5680 5677 5675 5673 5671 5669 5667 5665 5664
5786 5781 5776 5772 5768 5763 5760 5757 5753 5750 5747 5744 5741 5738 5735 5732 5729 5727 5724 5722 5719 5717 5715 5713 5711 5709 5706 5704 5700 5697 5694 5690 5686 5680 5676 5674 5671 5669 5666 5664 5661 5659 5657
5786 5781 5776 5771 5767 5763 5760 5756 5753 5749 5746 5743 5740 5737 5734 5731 5728 5726 5723 5720 5718 5715 5713 5710 5708 5706 5703 5700 5697 5694 5691 5688 5684 5679 5674 5671 5667 5664 5661 5659 5656 5653 5651
5786 5780 5775 5771 5768 5764 5760 5756 5752 5749 5745 5742 5738 5736 5733 5730 5727 5724 5721 5718 5716 5713 5710 5708 5706 5703 5701 5698 5695 5691 5688 5684 5680 5676 5671 5667 5663 5660 5657 5654 5651 5648 5646
5784 5779 5775 5771 5767 5763 5758 5755 5751 5748 5744 5740 5737 5734 5731 5728 5726 5723 5720 5717 5713 5710 5708 5705 5703 5701 5698 5696 5693 5689 5685 5680 5676 5672 5668 5664 5660 5657 5654 5650 5647 5644 5641
5783 5778 5774 5770 5765 5761 5757 5753 5749 5745 5742 5738 5735 5732 5729 5728 5725 5722 5718 5714 5711 5708 5705 5702 5700 5698 5695 5693 5690 5687 5683 5679 5674 5670 5666 5662 5658 5655 5651 5648 5643 5640 5637
5781 5776 5772 5768 5763 5760 5756 5751 5747 5743 5740 5736 5733 5730 5727 5725 5722 5719 5716 5712 5709 5706 5702 5699 5697 5695 5692 5689 5685 5682 5679 5676 5673 5669 5664 5660 5657 5654 5649 5644 5640 5637 5633
5778 5773 5769 5765 5761 5757 5753 5749 5745 5741 5737 5734 5731 5727 5724 5722 5720 5717 5714 5710 5706 5703 5700 5697 5693 5691 5688 5684 5681 5677 5674 5671 5668 5665 5662 5659 5655 5651 5647 5643 5638 5633 5628
5775 5771 5767 5763 5758 5754 5750 5746 5743 5739 5735 5732 5729 5725 5721 5719 5717 5714 5711 5706 5702 5699 5696 5693 5690 5687 5684 5680 5676 5672 5668 5665 5663 5660 5657 5654 5650 5646 5642 5638 5633 5629 5625
5774 5770 5766 5762 5756 5752 5748 5744 5740 5736 5732 5729 5725 5722 5719 5716 5713 5711 5707 5703 5698 5695 5692 5689 5686 5683 5679 5675 5672 5668 5663 5660 5658 5655 5651 5648 5645 5641 5638 5634 5631 5626 5622
5771 5767 5762 5758 5754 5750 5745 5741 5737 5733 5728 5725 5722 5719 5716 5713 5710 5707 5703 5699 5696 5692 5689 5686 5682 5679 5675 5671 5668 5664 5661 5657 5653 5650 5646 5643 5639 5636 5632 5629 5626 5623 5619
5766 5761 5757 5754 5750 5746 5741 5737 5733 5728 5724 5720 5717 5714 5712 5709 5706 5703 5700 5696 5693 5689 5686 5683 5679 5675 5671 5667 5663 5659 5655 5651 5647 5643 5641 5637 5634 5631 5628 5624 5621 5618 5615
5759 5755 5752 5749 5745 5741 5737 5732 5728 5723 5719 5716 5713 5710 5708 5706 5703 5700 5697 5693 5689 5686 5683 5680 5676 5671 5666 5662 5658 5653 5649 5645 5642 5638 5635 5633 5630 5626 5622 5618 5615 5612 5609
5753 5749 5746 5742 5739 5735 5732 5729 5724 5720 5716 5712 5709 5707 5705 5702 5700 5696 5693 5690 5685 5681 5678 5674 5669 5665 5661 5657 5652 5648 5644 5640 5637 5635 5631 5627 5623 5620 5617 5613 5610 5607 5604
5746 5743 5740 5737 5733 5730 5727 5724 5722 5720 5716 5712 5709 5706 5702 5699 5698 5694 5690 5686 5682 5677 5672 5668 5663 5659 5656 5652 5648 5645 5640 5636 5632 5629 5626 5622 5618 5615 5612 5608 5605 5601 5599
5740 5736 5733 5730 5727 5724 5721 5718 5717 5715 5712 5709 5706 5703 5701 5698 5694 5689 5685 5681 5676 5671 5666 5663 5659 5655 5652 5648 5645 5640 5636 5632 5628 5625 5621 5618 5614 5611 5608 5604 5600 5597 5594
5734 5730 5726 5723 5720 5717 5714 5712 5710 5708 5706 5703 5701 5698 5695 5692 5688 5683 5679 5674 5669 5665 5662 5659 5656 5653 5649 5645 5641 5637 5633 5629 5624 5620 5617 5613 5610 5606 5603 5599 5595 5592 5590
5727 5723 5719 5716 5714 5712 5709 5707 5704 5702 5700 5699 5696 5691 5688 5685 5682 5678 5672 5667 5662 5659 5658 5656 5654 5650 5646 5642 5638 5634 5629 5625 5620 5616 5613 5609 5605 5601 5597 5594 5591 5588 5585
5719 5716 5713 5710 5708 5706 5703 5701 5699 5697 5695 5693 5690 5687 5682 5678 5673 5669 5665 5663 5661 5657 5654 5652 5649 5646 5642 5638 5634 5629 5625 5621 5617 5612 5608 5604 5600 5596 5593 5590 5586 5582 5578
5711 5709 5707 5703 5701 5698 5696 5694 5693 5691 5689 5687 5684 5682 5677 5671 5667 5664 5661 5659 5657 5655 5651 5648 5645 5641 5637 5633 5629 5625 5621 5616 5612 5608 5604 5599 5595 5591 5588 5584 5581 5577 5574
5703 5700 5698 5697 5695 5692 5689 5687 5686 5684 5683 5681 5679 5677 5671 5668 5665 5662 5658 5655 5652 5650 5647 5643 5639 5635 5632 5628 5625 5620 5616 5612 5608 5603 5599 5594 5589 5585 5582 5578 5575 5572 5569
5694 5692 5690 5688 5687 5685 5683 5681 5679 5677 5676 5674 5672 5669 5663 5661 5658 5656 5653 5650 5646 5643 5640 5637 5633 5629 5626 5623 5619 5615 5611 5606 5602 5597 5593 5588 5583 5579 5575 5572 5569 5566 5562
5685 5683 5682 5680 5678 5676 5674 5673 5672 5670 5669 5667 5664 5661 5656 5653 5651 5648 5645 5642 5638 5635 5632 5629 5626 5622 5619 5615 5612 5608 5604 5600 5596 5591 5585 5581 5577 5573 5569 5566 5563 5559 5556
5676 5675 5672 5670 5668 5667 5665 5664 5663 5662 5661 5659 5656 5653 5650 5646 5643 5639 5636 5633 5630 5627 5624 5621 5618 5615 5611 5608 5604 5600 5597 5593 5589 5584 5579 5575 5571 5567 5563 5560 5556 5553 5549
5667 5666 5663 5661 5659 5657 5656 5655 5653 5652 5651 5649 5647 5644 5641 5637 5634 5630 5627 5624 5621 5618 5615 5612 5609 5606 5603 5600 5596 5593 5589 5585 5581 5576 5572 5568 5565 5561 5557 5553 5549 5545 5541
5657 5656 5654 5652 5650 5648 5647 5645 5644 5642 5641 5639 5637 5634 5631 5628 5625 5622 5618 5614 5612 5609 5605 5602 5600 5597 5594 5591 5588 5584 5581 5577 5573 5569 5564 5561 5557 5553 5549 5545 5541 5537 5532